Tracking 19720 objects as of 27-Jun-2019
HD Live streaming from Space Station
objects crossing your sky now

NOAA 5

Track NOAA 5 now!
10-day predictions
NOAA 5 is classified as:


NORAD ID: 9057
Int'l Code: 1976-077A
Perigee: 1,515.4 km
Apogee: 1,531.2 km
Inclination: 101.9 °
Period: 116.3 minutes
Semi major axis: 7894 km
RCS: 1.7201 m2 (large)
Launch date: July 29, 1976
Source: United States (US)
Launch site: AIR FORCE WESTERN TEST RANGE (AFWTR)
aabbcc
Your satellite tracking list
Your tracking list is empty




NASA's NSSDC Master Catalog

Two Line Element Set (TLE):
1  9057U 76077A   19177.47617733 -.00000067  00000-0 -17452-3 0  9998
2  9057 101.9321 148.4535 0010031 355.2155 118.2538 12.37751751939470
Source of the keplerian elements: AFSPC